Regional Weather Roundup
Issued by NWS

Home | Current Version | Previous Version | Graphics & Text | Print | Product List | Glossary On
Versions: 1 2 3 4 5 6 7 8 9 10 11 12 13 14 15 16 17 18 19 20 21 22 23 24 25 26 27 28 29 30 31 32 33 34 35 36 37 38 39 40 41 42 43 44 45 46 47 48 49 50
000
ASUS45 KBOI 221210
RWRID

IDAHO REGIONAL WEATHER ROUNDUP
NATIONAL WEATHER SERVICE BOISE ID
600 AM MDT FRI MAY 22 2015

NOTE: "FAIR" INDICATES FEW OR NO CLOUDS BELOW 12000 FEET
WITH NO SIGNIFICANT WEATHER AND/OR OBSTRUCTIONS TO VISIBILITY

IDZ012-014-221300-
SOUTHWEST IDAHO


CITY           SKY/WX    TMP DP  RH WIND       PRES   REMARKS
BOISE          PTCLDY    52  46  80 SE6       29.87S
CALDWELL       PTCLDY    52  43  71 CALM      29.88R
MOUNTAIN HOME  PTCLDY    49  44  80 NE5       29.87R
$$

IDZ016-017-221300-
SOUTHCENTRAL IDAHO


CITY           SKY/WX    TMP DP  RH WIND       PRES   REMARKS
BURLEY         CLOUDY    51  47  86 CALM      29.89S
JEROME         CLOUDY    51  45  79 E7        29.91R
TWIN FALLS     CLOUDY    51  45  79 CALM      29.89R
$$

IDZ019>023-221300-
SOUTHEAST IDAHO


CITY           SKY/WX    TMP DP  RH WIND       PRES   REMARKS
IDAHO FALLS    CLOUDY    47  44  90 CALM      29.94R
POCATELLO      CLOUDY    49  47  93 E3        29.92S
REXBURG        CLOUDY    48  44  86 NE5       29.94S
$$

IDZ006-010-011-018-031-032-221300-
CENTRAL IDAHO MOUNTAINS


CITY           SKY/WX    TMP DP  RH WIND       PRES   REMARKS
MCCALL         FOG       38  37  97 S3        29.93R VSB 1/2
HAILEY         CLOUDY    45  41  87 NW10G16   29.97R
STANLEY          N/A     41  38  89 CALM      30.01R
SALMON         PTCLDY    45  43  93 CALM      29.94S
CHALLIS        PTCLDY    43  40  89 S3        29.96S
$$

IDZ002-004-006-007-026-221300-
NORTHERN IDAHO


CITY           SKY/WX    TMP DP  RH WIND       PRES   REMARKS
LEWISTON       PTCLDY    57  52  83 SE3       29.84S
LOWELL           N/A     50  48  93 NW3       29.91S
COEUR D`ALENE  PTCLDY    52  45  76 NE3       29.86R
MULLAN PASS    CLEAR     48  37  65 SE5       29.98S
$$


USA.gov is the U.S. government's official web portal to all federal, state and local government web resources and services.